Regional Weather Roundup
Issued by NWS

Home | Current Version | Previous Version | Text Only | Print | Product List | Glossary On
Versions: 1 2 3 4 5 6 7 8 9 10 11 12 13 14 15 16 17 18 19 20 21 22 23 24 25 26 27 28 29 30 31 32 33 34 35 36 37 38 39 40 41 42 43 44 45 46 47 48 49 50
000
ASUS45 KTFX 201619
RWRMT
MONTANA HOURLY WEATHER ROUNDUP
NATIONAL WEATHER SERVICE GREAT FALLS MT
1019 AM MDT SUN APR 20 2014

NOTE: "FAIR" INDICATES FEW OR NO CLOUDS BELOW 12000 FEET WITH NO
SIGNIFICANT WEATHER AND/OR OBSTRUCTIONS TO VISIBILITY.

* THESE STATIONS ARE NOT UNDER NWS QUALITY CONTROL. THEY DO NOT
   REPORT WEATHER SUCH AS PRECIPITATION OR FOG.

MTZ001>007-043-201700-
WEST OF THE DIVIDE
CITY           SKY/WX    TMP DP  RH WIND       PRES   REMARKS
KALISPELL      PTSUNNY   46  28  50 W12       30.18R
MISSOULA       CLOUDY    46  25  44 W8        30.26R
BUTTE          SUNNY     43  23  45 NW8       30.17S
MULLAN PASS    CLOUDY    28  23  81 VRB5      30.19R WCI  22
* ESSEX        N/A       34  32  92 S3         N/A
* LINCOLN      N/A       42  22  45 SW7G22     N/A
* LOOKOUT PASS N/A       35  26  70 SE6G12     N/A   WCI  30
* PLAINS APT   SUNNY     48  23  37 SW18G25   30.23R
* POLSON       N/A       45  28  51 SW3G8      N/A
* RONAN APT    PTCLDY    46  27  48 S10G15     N/A
* SEELEY LAKE  N/A       44  22  42 W8G18      N/A
* THOMP F APT  SUNNY     45  25  45 N11G22     N/A
$$

MTZ008-052>055-201700-
SOUTHWEST MONTANA
CITY           SKY/WX    TMP DP  RH WIND       PRES   REMARKS
BOZEMAN        PTCLDY    50  27  41 W10       30.14S
DILLON         SUNNY     46  14  27 W14G22    30.17R
W YELLOWSTONE  N/A       48  28  46 SW5G11     N/A
* THREE FORKS  SUNNY     52  23  32 W13        N/A
* BOULDER HILL N/A       41  21  45 S10G16     N/A
* MONIDA PASS  N/A       42  21  43 NW11G20    N/A
* RAYNOLDS PAS N/A       41   3  20 NE11       N/A
* WHITEHALL    N/A       51  24  35 W11G19     N/A
* WISE RIVER   N/A       41  20  43 W12G22     N/A
$$

MTZ009>010-012-014-046-048-049-054-201700-
EAST SLOPES AND CENTRAL MONTANA
CITY           SKY/WX    TMP DP  RH WIND       PRES   REMARKS
CUT BANK       SUNNY     48  27  44 W35G41    30.00R
GREAT FALLS    SUNNY     50  18  28 W25G35    30.06R
HELENA         SUNNY     48  19  32 W23G30    30.14R
MALMSTROM AFB  SUNNY     52  18  26 SW26G37   30.02R
* CONRAD       SUNNY     50  27  41 SW18G25    N/A
* DEARBORN     N/A       48  18  30 S14G24     N/A
* MONARCH      N/A       41  14  33 SW19G31    N/A
* PENDROY      N/A       46  22  39 W34G44     N/A
* ROGERS PASS  N/A       39  16  39 SE7G15     N/A   WCI  34
* SAINT MARY   N/A       36  28  73 S12G28     N/A   WCI  28
* SWEET GRASS  N/A       48  26  42 W29G40     N/A
* WHITE SULPH  N/A       46  22  39 NW15G26    N/A
$$

MTZ011-013-016-021-035-040-045-047-050-051-201700-
NORTH CENTRAL MONTANA
CITY           SKY/WX    TMP DP  RH WIND       PRES   REMARKS
HAVRE          CLOUDY    52  27  38 W28G39    29.97R
LEWISTOWN      SUNNY     52  16  24 W31G39    30.03R
* CHINOOK      PTCLDY    54  27  35 W32G39    29.95S
* FORT BENTON  SUNNY     55  19  24 SW25G37   30.04R
* CHESTER      N/A       48  25  41 W21G33     N/A
* DENTON       N/A       52  22  31 W30G42     N/A
* GEYSER       N/A       50  20  31 W25G38     N/A
* JUDITH GAP   N/A       50  21  32 W14G20     N/A
* LOMA         N/A       53  21  29 SW24G37    N/A
$$

MTZ017>020-022>027-061-062-201700-
NORTHEAST MONTANA
CITY           SKY/WX    TMP DP  RH WIND       PRES   REMARKS
GLASGOW        PTSUNNY   57  28  33 W26G36    29.91R
GLENDIVE       CLOUDY    57  27  32 NW32G47   29.91R
JORDAN         PTCLDY    57  25  29 W30G44    29.94R
SIDNEY         PTSUNNY   61  32  34 W21G26    29.88R
WOLF POINT     PTCLDY    61  28  29 W28G37    29.88R
* BEAVER HILL  N/A       55  32  42 SW19G24    N/A
* CIRCLE       N/A       52  31  45 NW13G28    N/A
* LINDSAY DVD  N/A       53  26  35 NW34G45    N/A
* NAVAJO       N/A       53  28  38 W16G22     N/A
* SACO         N/A       57  26  30 W29G37     N/A
* SCOBEY APT   PTCLDY    55  27  34 W23G31    29.84R
$$

MTZ028>042-056>058-201700-
SOUTHCENTRAL AND SOUTHEAST MONTANA
CITY           SKY/WX    TMP DP  RH WIND       PRES   REMARKS
BAKER          CLOUDY    57  34  42 W21       29.94R
BILLINGS       PTSUNNY   55  27  34 W17       30.05R
LIVINGSTON     PTCLDY    54  28  37 W28       30.10R
MILES CITY     CLOUDY    55  28  35 NW17G25   29.97R
* EKALAKA APT  CLOUDY    55  32  42 W12G21    29.95R
* LAUREL APT   PTCLDY    55  30  39 W11G17     N/A
* ROUNDUP APT  SUNNY     55  16  21 W26G32     N/A
* HYSHAM       N/A       52  27  38 W8G13      N/A
* LAME DEER    N/A       49  25  39 NW20G28    N/A
* REED POINT   N/A       54  30  40 W18G30     N/A
* ROSCOE HILL  N/A       50  22  33 E7         N/A
$$

REGIONAL REPORTS...DAKOTAS
CITY           SKY/WX    TMP DP  RH WIND       PRES   REMARKS
WILLISTON      PTSUNNY   55  34  45 S7        29.84S
DICKINSON      CLOUDY    59  30  33 S14       29.87S
CROSBY         SUNNY     57  34  42 S10       29.81F
TIOGA          PTSUNNY   57  32  39 S12       29.87F
WATFORD CITY   SUNNY     63  32  31 SW13      29.84R
BISMARCK       PTCLDY    61  37  41 SE9       29.94F
GRAND FORKS    SUNNY     52  37  57 S8        30.01F
FARGO          SUNNY     59  36  42 S9        30.01S
BUFFALO SD     PTCLDY    63  32  31 S8        29.85S
RAPID CITY     SUNNY     63  37  38 VRB7      29.92R
$$

REGIONAL REPORTS...WYOMING/IDAHO/WASHINGTON
CITY           SKY/WX    TMP DP  RH WIND       PRES   REMARKS
GILLETTE       PTCLDY    64  34  33 CALM      29.97R
SHERIDAN       CLOUDY    54  30  40 NW30G36   30.04R
CODY           PTSUNNY   54  28  37 N12       30.05R
YELLOWSTONE LA PTCLDY    43  27  53 N/A       30.17R
SALMON         SUNNY     48  21  34 NW6       30.21R
MULLAN PASS    CLOUDY    28  23  81 VRB5      30.19S WCI  22
SAND POINT     N/A       43  34  71 S8        30.25R
SPOKANE        PTSUNNY   43  34  71 S10       30.25R
$$

REGIONAL REPORTS...ALBERTA
CITY           SKY/WX    TMP DP  RH WIND       PRES   REMARKS
CALGARY        PTCLDY    50  23  35 W13G20    29.92R
LETHBRIDGE     SUNNY     52  27  38 W38G46    29.95R
MEDICINE HAT   PTCLDY    48  39  71 W17G25    29.91R
EDMONTON       PTSUNNY   45  36  71 W18G28    29.87R
WATERTON GATE  N/A       45  28  51 SW18G29    N/A
CARDSTON       N/A       46  25  44 W21G30     N/A
$$

REGIONAL REPORTS...SASKATCHEWAN
CITY           SKY/WX    TMP DP  RH WIND       PRES   REMARKS
SWIFT CURRENT  PTCLDY    50  36  59 W23G32    29.78S
REGINA         PTCLDY    45  37  74 SE13G20   29.82S
VAL MARIE      N/A       54  28  37 W30G38     N/A
ASSINIBOIA     N/A       45  32  60 W16        N/A
CORONACH       N/A       54  28  37 NW22       N/A

$$




USA.gov is the U.S. government's official web portal to all federal, state and local government web resources and services.